TRA48H EHAM-GMAD

Flight info

Callsign TRA48H
Flight time N/A
Altitude 23000
Route WOODY N872 CIV/N0450F350 N872 MEDIL DCT ERIGA/N0451F370 DCT FUJTI DCT BAKUP DCT BATAX DCT ABRAT DCT OSLAD UR724 AGALI
Aircraft A21N/M-SBDE2E3FGHIJ1J5M1P2RWXYZ/LB1D1G1

Departure

Time 2026-04-27 10:01
Airport Amsterdam Airport Schiphol (EHAM)

Arrival

Time N/A
Airport Al Massira Airport (GMAD)
Time Latitude Longitude Altitude Speed Heading
2026-04-27 08:55 52.30891 4.77302 4 ft 0 kts
2026-04-27 08:55 52.30897 4.77303 4 ft 0 kts
2026-04-27 09:44 52.30879 4.77302 4 ft 4 kts 355°
2026-04-27 09:44 52.30855 4.77304 4 ft 4 kts 27°
2026-04-27 09:44 52.30845 4.77283 4 ft 4 kts 80°
2026-04-27 09:44 52.30843 4.77266 4 ft 1 kts 78°
2026-04-27 09:47 52.30843 4.77270 4 ft 1 kts 86°
2026-04-27 09:47 52.30842 4.77308 4 ft 8 kts 96°
2026-04-27 09:47 52.30835 4.77432 4 ft 12 kts 94°
2026-04-27 09:48 52.30839 4.77573 4 ft 14 kts 58°
2026-04-27 09:48 52.30931 4.77614 4 ft 15 kts
2026-04-27 09:48 52.31060 4.77627 4 ft 20 kts
2026-04-27 09:48 52.31202 4.77637 4 ft 21 kts
2026-04-27 09:49 52.31353 4.77650 4 ft 22 kts
2026-04-27 09:49 52.31502 4.77582 4 ft 24 kts 318°
2026-04-27 09:49 52.31580 4.77354 4 ft 25 kts 261°
2026-04-27 09:49 52.31569 4.77068 4 ft 26 kts 267°
2026-04-27 09:50 52.31560 4.76768 4 ft 27 kts 267°
2026-04-27 09:50 52.31548 4.76454 5 ft 28 kts 266°
2026-04-27 09:50 52.31536 4.76132 5 ft 29 kts 266°
2026-04-27 09:50 52.31524 4.75797 4 ft 28 kts 267°
2026-04-27 09:51 52.31513 4.75468 4 ft 30 kts 267°
2026-04-27 09:51 52.31502 4.75125 4 ft 31 kts 267°
2026-04-27 09:51 52.31490 4.74768 4 ft 32 kts 267°
2026-04-27 09:51 52.31480 4.74487 5 ft 19 kts 266°
2026-04-27 09:52 52.31509 4.74305 4 ft 17 kts 340°
2026-04-27 09:52 52.31589 4.74300 5 ft 18 kts
2026-04-27 09:52 52.31750 4.74318 4 ft 27 kts
2026-04-27 09:52 52.31937 4.74338 4 ft 25 kts
2026-04-27 09:53 52.32036 4.74137 4 ft 21 kts 273°
2026-04-27 09:53 52.32042 4.73864 4 ft 29 kts 274°
2026-04-27 09:53 52.32056 4.73532 5 ft 30 kts 274°
2026-04-27 09:53 52.32137 4.73295 4 ft 23 kts 317°
2026-04-27 09:54 52.32217 4.73171 4 ft 25 kts 319°
2026-04-27 09:54 52.32356 4.72981 4 ft 27 kts 320°
2026-04-27 09:54 52.32501 4.72780 4 ft 28 kts 320°
2026-04-27 09:54 52.32652 4.72567 4 ft 30 kts 317°
2026-04-27 09:55 52.32794 4.72311 4 ft 31 kts 310°
2026-04-27 09:55 52.32939 4.72041 4 ft 32 kts 311°
2026-04-27 09:55 52.33145 4.71536 5 ft 21 kts 244°
2026-04-27 09:56 52.33178 4.71340 5 ft 20 kts 312°
2026-04-27 09:56 52.33258 4.71192 4 ft 16 kts 311°
2026-04-27 09:56 52.33296 4.71120 4 ft 0 kts 312°
2026-04-27 09:57 52.33299 4.71115 4 ft 4 kts 312°
2026-04-27 09:58 52.33345 4.71028 3 ft 12 kts 310°
2026-04-27 09:58 52.33408 4.70939 3 ft 13 kts
2026-04-27 09:58 52.33444 4.70945 3 ft 0 kts
2026-04-27 09:59 52.33454 4.70945 3 ft 8 kts
2026-04-27 10:00 52.33673 4.70966 6 ft 65 kts
2026-04-27 10:00 52.34336 4.71028 2 ft 124 kts
2026-04-27 10:00 52.35361 4.71121 34 ft 165 kts
2026-04-27 10:00 52.36527 4.71219 514 ft 168 kts
2026-04-27 10:01 52.37680 4.71306 1152 ft 169 kts
2026-04-27 10:01 52.38888 4.71409 1666 ft 181 kts
2026-04-27 10:01 52.40207 4.71573 2136 ft 200 kts
2026-04-27 10:01 52.41676 4.71723 2564 ft 225 kts
2026-04-27 10:02 52.43330 4.71883 2992 ft 249 kts
2026-04-27 10:02 52.45091 4.72039 3739 ft 257 kts
2026-04-27 10:02 52.46877 4.72176 4692 ft 257 kts
2026-04-27 10:02 52.48657 4.72296 5652 ft 255 kts
2026-04-27 10:03 52.50458 4.72447 6399 ft 266 kts
2026-04-27 10:03 52.52240 4.73320 7137 ft 271 kts 26°
2026-04-27 10:03 52.53760 4.75182 7911 ft 276 kts 46°
2026-04-27 10:03 52.54817 4.77830 8709 ft 282 kts 66°
2026-04-27 10:04 52.55263 4.80939 9505 ft 287 kts 87°
2026-04-27 10:04 52.55012 4.84202 10310 ft 292 kts 108°
2026-04-27 10:04 52.54046 4.87209 10775 ft 308 kts 130°
2026-04-27 10:04 52.52361 4.89516 11095 ft 327 kts 153°
2026-04-27 10:05 52.50145 4.90597 11383 ft 343 kts 176°
2026-04-27 10:05 52.47730 4.90202 11670 ft 358 kts 198°
2026-04-27 10:05 52.45472 4.88375 12022 ft 368 kts 218°
2026-04-27 10:05 52.43546 4.85584 12649 ft 372 kts 220°
2026-04-27 10:06 52.41304 4.83533 13321 ft 378 kts 201°
2026-04-27 10:06 52.38712 4.82738 14009 ft 383 kts 183°
2026-04-27 10:06 52.36052 4.83259 14584 ft 389 kts 170°
2026-04-27 10:06 52.33383 4.84138 15104 ft 392 kts 173°
2026-04-27 10:07 52.30663 4.84603 15612 ft 394 kts 179°
2026-04-27 10:07 52.27913 4.84744 16114 ft 397 kts 182°
2026-04-27 10:07 52.25138 4.84753 16595 ft 400 kts 183°
2026-04-27 10:07 52.22343 4.84711 17052 ft 403 kts 184°
2026-04-27 10:08 52.19527 4.84654 17478 ft 406 kts 184°
2026-04-27 10:08 52.16690 4.84595 17866 ft 409 kts 184°
2026-04-27 10:08 52.13871 4.84537 18242 ft 412 kts 184°
2026-04-27 10:08 52.10996 4.84476 18613 ft 415 kts 184°
2026-04-27 10:09 52.08098 4.84413 18938 ft 417 kts 185°
2026-04-27 10:09 52.05194 4.84345 19269 ft 418 kts 185°
2026-04-27 10:09 52.02308 4.83865 19628 ft 415 kts 195°
2026-04-27 10:09 51.99573 4.82446 20019 ft 411 kts 207°
2026-04-27 10:10 51.96990 4.80455 20412 ft 412 kts 210°
2026-04-27 10:10 51.94416 4.78375 20781 ft 414 kts 210°
2026-04-27 10:10 51.91824 4.76299 21210 ft 416 kts 210°
2026-04-27 10:10 51.89216 4.74229 21629 ft 418 kts 210°
2026-04-27 10:11 51.86595 4.72160 22040 ft 421 kts 210°
2026-04-27 10:11 51.83953 4.70090 22470 ft 423 kts 209°
2026-04-27 10:11 51.81334 4.68049 22897 ft 425 kts 209°
2026-04-27 10:11 51.78662 4.65969 23310 ft 427 kts 210°
2026-04-27 10:12 51.75977 4.63873 23735 ft 430 kts 210°
2026-04-27 10:12 51.73274 4.61770 24106 ft 432 kts 209°
2026-04-27 10:12 51.70559 4.59669 24460 ft 434 kts 209°
2026-04-27 10:12 51.67826 4.57559 24805 ft 437 kts 209°
2026-04-27 10:13 51.65081 4.55438 25174 ft 438 kts 210°
2026-04-27 10:13 51.62327 4.53313 25550 ft 440 kts 210°
2026-04-27 10:13 51.59560 4.51183 25911 ft 441 kts 210°
2026-04-27 10:13 51.56824 4.49080 26254 ft 443 kts 210°
2026-04-27 10:14 51.54039 4.46943 26581 ft 444 kts 210°
2026-04-27 10:14 51.51245 4.44805 26915 ft 445 kts 210°
2026-04-27 10:14 51.48449 4.42672 27311 ft 444 kts 210°
2026-04-27 10:14 51.45664 4.40547 27683 ft 444 kts 210°
2026-04-27 10:15 51.42883 4.38414 28098 ft 442 kts 210°
2026-04-27 10:15 51.40113 4.36297 28525 ft 440 kts 210°
2026-04-27 10:15 51.37353 4.34202 28933 ft 439 kts 210°
2026-04-27 10:15 51.34601 4.32116 29363 ft 437 kts 210°
2026-04-27 10:16 51.31859 4.30038 29787 ft 435 kts 210°
2026-04-27 10:16 51.29165 4.27992 30210 ft 434 kts 210°
2026-04-27 10:16 51.26451 4.25919 30601 ft 432 kts 211°
2026-04-27 10:16 51.23740 4.23862 30897 ft 431 kts 210°
2026-04-27 10:17 51.21027 4.21812 31113 ft 432 kts 210°
2026-04-27 10:17 51.18315 4.19765 31168 ft 431 kts 210°
2026-04-27 10:17 51.12705 4.16280 31194 ft 435 kts 204°
2026-04-27 10:18 51.06983 4.13162 31273 ft 435 kts 204°
2026-04-27 10:18 51.04163 4.11625 31379 ft 435 kts 204°
2026-04-27 10:18 51.01304 4.10064 31501 ft 434 kts 204°
2026-04-27 10:19 50.98447 4.08499 31634 ft 434 kts 204°
2026-04-27 10:19 50.95593 4.06941 31757 ft 434 kts 204°
2026-04-27 10:19 50.92738 4.05388 31885 ft 434 kts 204°
2026-04-27 10:19 50.89883 4.03837 32013 ft 433 kts 204°
2026-04-27 10:20 50.87053 4.02220 32142 ft 431 kts 206°
2026-04-27 10:20 50.84273 4.00444 32268 ft 431 kts 207°
2026-04-27 10:20 50.81534 3.98680 32394 ft 431 kts 207°
2026-04-27 10:20 50.78759 3.96898 32498 ft 430 kts 207°
2026-04-27 10:21 50.75987 3.95120 32628 ft 430 kts 207°
2026-04-27 10:21 50.73219 3.93348 32766 ft 430 kts 207°
2026-04-27 10:21 50.70448 3.91579 32882 ft 429 kts 206°
2026-04-27 10:21 50.67679 3.89815 33020 ft 429 kts 206°
2026-04-27 10:22 50.64909 3.88054 33156 ft 429 kts 206°
2026-04-27 10:22 50.62138 3.86295 33278 ft 429 kts 206°
2026-04-27 10:22 50.59409 3.84564 33424 ft 429 kts 206°
2026-04-27 10:22 50.56651 3.82775 33534 ft 427 kts 208°
2026-04-27 10:23 50.53925 3.80921 33663 ft 427 kts 208°
2026-04-27 10:23 50.51201 3.79060 33803 ft 427 kts 208°
2026-04-27 10:23 50.48481 3.77201 33941 ft 426 kts 208°
2026-04-27 10:23 50.45761 3.75346 34080 ft 426 kts 208°
2026-04-27 10:24 50.43042 3.73492 34214 ft 426 kts 208°
2026-04-27 10:24 50.40321 3.71642 34298 ft 425 kts 208°
2026-04-27 10:24 50.35037 3.67607 34268 ft 419 kts 218°
2026-04-27 10:25 50.32832 3.64767 34268 ft 414 kts 229°
2026-04-27 10:25 50.30957 3.61367 34268 ft 412 kts 234°
2026-04-27 10:25 50.27404 3.54335 34260 ft 412 kts 234°
2026-04-27 10:26 50.23822 3.47340 34262 ft 412 kts 233°
2026-04-27 10:26 50.20219 3.40375 34262 ft 412 kts 233°
2026-04-27 10:27 50.16633 3.33465 34263 ft 412 kts 233°
2026-04-27 10:27 50.13019 3.26525 34253 ft 412 kts 233°
2026-04-27 10:28 50.09410 3.19606 34257 ft 411 kts 233°
2026-04-27 10:28 50.05784 3.12676 34267 ft 413 kts 233°
2026-04-27 10:29 50.02149 3.05748 34263 ft 413 kts 233°
2026-04-27 10:29 49.98535 2.98875 34268 ft 413 kts 233°
2026-04-27 10:30 49.94890 2.91964 34264 ft 413 kts 233°
2026-04-27 10:30 49.91245 2.85069 34264 ft 413 kts 233°
2026-04-27 10:31 49.87600 2.78195 34269 ft 413 kts 233°
2026-04-27 10:31 49.83973 2.71372 34285 ft 412 kts 233°
2026-04-27 10:32 49.82157 2.67963 34526 ft 408 kts 232°
2026-04-27 10:32 49.80358 2.64590 34839 ft 404 kts 232°
2026-04-27 10:32 49.78572 2.61246 35079 ft 404 kts 233°
2026-04-27 10:32 49.76765 2.57863 34965 ft 411 kts 232°
2026-04-27 10:33 49.74939 2.54450 34766 ft 412 kts 232°
2026-04-27 10:33 49.73110 2.51037 34539 ft 412 kts 232°
2026-04-27 10:33 49.71304 2.47672 34305 ft 412 kts 232°
2026-04-27 10:33 49.69475 2.44271 34226 ft 411 kts 232°
2026-04-27 10:34 49.65819 2.37479 34245 ft 411 kts 232°
2026-04-27 10:34 49.62155 2.30693 34259 ft 411 kts 232°
2026-04-27 10:35 49.58489 2.23920 34265 ft 411 kts 232°
2026-04-27 10:35 49.54839 2.17194 34257 ft 412 kts 232°
2026-04-27 10:36 49.51161 2.10434 34256 ft 412 kts 232°
2026-04-27 10:36 49.47488 2.03702 34250 ft 408 kts 232°
2026-04-27 10:37 49.43836 1.97021 34259 ft 408 kts 232°
2026-04-27 10:37 49.40178 1.90351 34261 ft 408 kts 232°
2026-04-27 10:38 49.36540 1.83733 34260 ft 408 kts 232°
2026-04-27 10:38 49.32875 1.77079 34269 ft 408 kts 231°
2026-04-27 10:39 49.29199 1.70425 34261 ft 410 kts 231°
2026-04-27 10:39 49.25521 1.63784 34260 ft 407 kts 231°
2026-04-27 10:40 49.21852 1.57174 34260 ft 407 kts 231°
2026-04-27 10:40 49.18203 1.50617 34260 ft 407 kts 231°
2026-04-27 10:41 49.14525 1.44025 34257 ft 408 kts 231°
2026-04-27 10:41 49.10842 1.37440 34259 ft 408 kts 231°
2026-04-27 10:42 49.07155 1.30867 34257 ft 408 kts 231°
2026-04-27 10:42 49.03470 1.24312 34256 ft 407 kts 231°
2026-04-27 10:43 48.99810 1.17817 34260 ft 407 kts 231°
2026-04-27 10:43 48.96125 1.11294 34261 ft 407 kts 231°
2026-04-27 10:44 48.92427 1.04766 34259 ft 407 kts 231°
2026-04-27 10:44 48.88731 0.98256 34254 ft 407 kts 231°
2026-04-27 10:45 48.85032 0.91757 34259 ft 407 kts 230°
2026-04-27 10:45 48.81349 0.85304 34263 ft 407 kts 230°
2026-04-27 10:46 48.77642 0.78820 34254 ft 407 kts 230°
2026-04-27 10:46 48.73934 0.72353 34255 ft 407 kts 230°
2026-04-27 10:47 48.70224 0.65895 34255 ft 407 kts 230°
2026-04-27 10:47 48.66527 0.59481 34254 ft 407 kts 230°
2026-04-27 10:48 48.62810 0.53046 34246 ft 405 kts 230°
2026-04-27 10:48 48.59097 0.46633 34250 ft 405 kts 230°
2026-04-27 10:49 48.55379 0.40230 34252 ft 406 kts 229°
2026-04-27 10:49 48.51681 0.33872 34248 ft 406 kts 229°
2026-04-27 10:50 48.47955 0.27483 34246 ft 406 kts 229°
2026-04-27 10:50 48.44222 0.21095 34245 ft 406 kts 229°
2026-04-27 10:51 48.40491 0.14731 34245 ft 405 kts 229°
2026-04-27 10:51 48.36784 0.08422 34244 ft 405 kts 229°
2026-04-27 10:52 48.33048 0.02075 34246 ft 405 kts 229°
2026-04-27 10:52 48.29308 -0.04267 34256 ft 406 kts 229°
2026-04-27 10:53 48.23715 -0.13722 34249 ft 406 kts 229°
2026-04-27 10:54 48.19967 -0.20036 34239 ft 405 kts 229°
2026-04-27 10:54 48.16219 -0.26332 34241 ft 405 kts 229°
2026-04-27 10:55 48.12468 -0.32617 34238 ft 405 kts 229°
2026-04-27 10:55 48.08716 -0.38891 34235 ft 405 kts 228°
2026-04-27 10:56 48.04989 -0.45111 34235 ft 405 kts 228°
2026-04-27 10:56 48.01222 -0.51379 34233 ft 405 kts 228°
2026-04-27 10:57 47.97458 -0.57630 34229 ft 405 kts 228°
2026-04-27 10:57 47.93688 -0.63874 34230 ft 405 kts 228°
2026-04-27 10:58 47.89913 -0.70111 34232 ft 405 kts 228°
2026-04-27 10:58 47.86163 -0.76294 34233 ft 405 kts 228°
2026-04-27 10:59 47.82382 -0.82515 34232 ft 405 kts 228°
2026-04-27 10:59 47.78595 -0.88726 34231 ft 405 kts 228°
2026-04-27 11:00 47.72922 -0.98006 34236 ft 404 kts 227°
2026-04-27 11:00 47.69160 -1.04141 34238 ft 404 kts 227°
2026-04-27 11:01 47.65371 -1.10310 34233 ft 405 kts 227°
2026-04-27 11:01 47.61579 -1.16474 34232 ft 405 kts 227°
2026-04-27 11:02 47.57779 -1.22624 34222 ft 404 kts 227°
2026-04-27 11:02 47.53979 -1.28768 34229 ft 405 kts 227°
2026-04-27 11:03 47.50199 -1.34866 34227 ft 405 kts 227°
2026-04-27 11:03 47.46393 -1.40990 34226 ft 405 kts 227°
2026-04-27 11:04 47.42576 -1.47121 34215 ft 405 kts 227°
2026-04-27 11:04 47.38759 -1.53235 34212 ft 405 kts 227°
2026-04-27 11:05 47.34967 -1.59289 34205 ft 404 kts 227°
2026-04-27 11:05 47.31152 -1.65369 34204 ft 404 kts 227°
2026-04-27 11:06 47.27336 -1.71439 34208 ft 404 kts 227°
2026-04-27 11:06 47.23513 -1.77506 34205 ft 404 kts 227°
2026-04-27 11:07 47.19683 -1.83569 34469 ft 405 kts 227°
2026-04-27 11:07 47.17789 -1.86564 34654 ft 405 kts 227°
2026-04-27 11:07 47.15867 -1.89597 34823 ft 406 kts 227°
2026-04-27 11:08 47.13945 -1.92630 35021 ft 405 kts 227°
2026-04-27 11:08 47.12021 -1.95660 35195 ft 406 kts 227°
2026-04-27 11:08 47.10094 -1.98691 35343 ft 406 kts 227°
2026-04-27 11:08 47.08165 -2.01727 35499 ft 407 kts 227°
2026-04-27 11:09 47.06231 -2.04761 35649 ft 407 kts 227°
2026-04-27 11:09 47.04295 -2.07797 35797 ft 408 kts 227°
2026-04-27 11:09 47.02377 -2.10801 35908 ft 409 kts 227°
2026-04-27 11:09 47.00429 -2.13846 36036 ft 410 kts 227°
2026-04-27 11:10 46.98475 -2.16897 36171 ft 411 kts 227°
2026-04-27 11:10 46.96516 -2.19955 36245 ft 412 kts 227°
2026-04-27 11:10 46.92599 -2.26060 36220 ft 410 kts 227°
2026-04-27 11:11 46.88696 -2.32132 36207 ft 409 kts 227°
2026-04-27 11:11 46.84505 -2.37660 36209 ft 411 kts 215°
2026-04-27 11:12 46.79610 -2.41987 36222 ft 411 kts 212°
2026-04-27 11:12 46.74684 -2.46258 36229 ft 413 kts 212°
2026-04-27 11:13 46.69756 -2.50559 36217 ft 413 kts 212°
2026-04-27 11:13 46.64826 -2.54858 36216 ft 413 kts 212°
2026-04-27 11:14 46.59929 -2.59121 36218 ft 413 kts 212°
2026-04-27 11:14 46.54995 -2.63412 36216 ft 413 kts 212°
2026-04-27 11:15 46.50077 -2.67678 36205 ft 411 kts 213°
2026-04-27 11:15 46.45171 -2.71924 36210 ft 411 kts 212°
2026-04-27 11:16 46.40296 -2.76129 36229 ft 411 kts 212°
2026-04-27 11:16 46.35384 -2.80361 36224 ft 411 kts 212°
2026-04-27 11:17 46.30449 -2.84598 36211 ft 413 kts 212°
2026-04-27 11:17 46.25513 -2.88838 36206 ft 413 kts 213°
2026-04-27 11:18 46.20635 -2.93096 36212 ft 412 kts 213°
2026-04-27 11:18 46.15727 -2.97379 36213 ft 412 kts 213°
2026-04-27 11:19 46.10818 -3.01643 36205 ft 410 kts 213°
2026-04-27 11:19 46.05936 -3.05870 36206 ft 409 kts 213°
2026-04-27 11:20 46.01057 -3.10094 36212 ft 409 kts 213°
2026-04-27 11:20 45.96215 -3.14284 36218 ft 409 kts 213°
2026-04-27 11:21 45.91322 -3.18502 36219 ft 411 kts 213°
2026-04-27 11:21 45.86416 -3.22721 36214 ft 411 kts 213°
2026-04-27 11:22 45.81510 -3.26923 36216 ft 411 kts 213°
2026-04-27 11:22 45.76634 -3.31084 36221 ft 411 kts 213°
2026-04-27 11:23 45.71721 -3.35276 36192 ft 410 kts 213°
2026-04-27 11:23 45.66832 -3.39436 36208 ft 408 kts 213°
2026-04-27 11:24 45.61950 -3.43592 36210 ft 409 kts 213°
2026-04-27 11:24 45.57098 -3.47717 36213 ft 409 kts 213°
2026-04-27 11:25 45.52208 -3.51862 36206 ft 410 kts 213°
2026-04-27 11:25 45.47297 -3.56013 36207 ft 410 kts 213°
2026-04-27 11:26 45.42384 -3.60152 36211 ft 410 kts 213°
2026-04-27 11:26 45.37506 -3.64265 36211 ft 410 kts 213°
2026-04-27 11:27 45.32591 -3.68396 36210 ft 410 kts 213°
2026-04-27 11:27 45.27683 -3.72512 36204 ft 409 kts 213°
2026-04-27 11:28 45.22778 -3.76616 36207 ft 409 kts 213°
2026-04-27 11:28 45.17869 -3.80713 36207 ft 409 kts 213°
2026-04-27 11:29 45.13002 -3.84770 36216 ft 409 kts 213°
2026-04-27 11:29 45.08081 -3.88866 36209 ft 410 kts 213°
2026-04-27 11:30 45.03167 -3.92941 36210 ft 409 kts 213°
2026-04-27 11:30 44.98251 -3.97010 36213 ft 409 kts 213°
2026-04-27 11:31 44.93365 -4.01040 36207 ft 410 kts 213°
2026-04-27 11:31 44.88449 -4.05093 36198 ft 410 kts 213°
2026-04-27 11:32 44.83504 -4.09161 36208 ft 411 kts 213°
2026-04-27 11:32 44.78569 -4.13215 36206 ft 411 kts 213°
2026-04-27 11:33 44.73633 -4.17264 36202 ft 411 kts 213°
2026-04-27 11:33 44.68727 -4.21283 36202 ft 411 kts 213°
2026-04-27 11:34 44.63787 -4.25320 36205 ft 411 kts 213°
2026-04-27 11:34 44.58847 -4.29348 36205 ft 411 kts 213°
2026-04-27 11:35 44.53904 -4.33369 36203 ft 411 kts 213°
2026-04-27 11:35 44.48985 -4.37365 36201 ft 412 kts 213°
2026-04-27 11:36 44.44024 -4.41382 36190 ft 412 kts 213°
2026-04-27 11:36 44.39087 -4.45454 36200 ft 412 kts 214°
2026-04-27 11:37 44.34193 -4.49611 36199 ft 412 kts 214°
2026-04-27 11:37 44.29324 -4.53736 36195 ft 413 kts 214°
2026-04-27 11:38 44.24412 -4.57881 36204 ft 413 kts 214°
2026-04-27 11:38 44.19499 -4.62016 36204 ft 412 kts 214°
2026-04-27 11:39 44.14594 -4.66145 36203 ft 412 kts 214°
2026-04-27 11:39 44.09694 -4.70261 36204 ft 412 kts 213°
2026-04-27 11:40 44.04801 -4.74357 36201 ft 413 kts 213°
2026-04-27 11:40 43.99884 -4.78469 36200 ft 413 kts 213°
2026-04-27 11:41 43.94960 -4.82583 36197 ft 413 kts 213°
2026-04-27 11:41 43.90037 -4.86684 36193 ft 413 kts 213°
2026-04-27 11:42 43.85105 -4.90784 36210 ft 413 kts 213°
2026-04-27 11:42 43.80209 -4.94846 36230 ft 413 kts 213°
2026-04-27 11:43 43.75280 -4.98925 36226 ft 412 kts 213°
2026-04-27 11:43 43.70356 -5.02995 36224 ft 414 kts 213°
2026-04-27 11:44 43.65405 -5.07078 36223 ft 414 kts 213°
2026-04-27 11:44 43.60488 -5.11125 36224 ft 414 kts 213°
2026-04-27 11:45 43.56340 -5.14536 36227 ft 414 kts 213°
2026-04-27 11:45 43.50598 -5.19250 36217 ft 415 kts 213°
2026-04-27 11:46 43.45624 -5.23321 36197 ft 415 kts 213°
2026-04-27 11:46 43.40650 -5.27383 36209 ft 416 kts 213°
2026-04-27 11:47 43.35704 -5.31415 36194 ft 416 kts 213°
2026-04-27 11:47 43.30727 -5.35467 36182 ft 416 kts 213°
2026-04-27 11:48 43.25731 -5.39526 36168 ft 418 kts 212°
2026-04-27 11:48 43.20717 -5.43587 36169 ft 418 kts 212°
2026-04-27 11:49 43.15738 -5.47614 36169 ft 419 kts 212°
2026-04-27 11:49 43.10721 -5.51666 36157 ft 419 kts 212°
2026-04-27 11:50 43.05702 -5.55715 36159 ft 419 kts 212°
2026-04-27 11:50 43.00677 -5.59765 36154 ft 420 kts 212°
2026-04-27 11:51 42.95674 -5.63786 36149 ft 420 kts 212°
2026-04-27 11:52 42.88120 -5.69835 36138 ft 420 kts 212°
2026-04-27 11:52 42.83063 -5.73870 36138 ft 422 kts 212°
2026-04-27 11:53 42.77994 -5.77912 36142 ft 422 kts 212°
2026-04-27 11:53 42.72959 -5.81924 36142 ft 422 kts 212°
2026-04-27 11:54 42.67891 -5.85949 36142 ft 422 kts 212°
2026-04-27 11:54 42.62812 -5.89974 36142 ft 422 kts 212°
2026-04-27 11:55 42.57739 -5.93996 36139 ft 422 kts 212°
2026-04-27 11:55 42.52659 -5.98011 36136 ft 422 kts 212°
2026-04-27 11:56 42.47614 -6.01989 36136 ft 422 kts 212°
2026-04-27 11:56 42.42530 -6.05982 36128 ft 423 kts 212°
2026-04-27 11:57 42.37441 -6.09975 36127 ft 423 kts 212°
2026-04-27 11:57 42.32345 -6.13975 36126 ft 424 kts 212°
2026-04-27 11:58 42.27276 -6.17940 36121 ft 424 kts 212°
2026-04-27 11:58 42.22170 -6.21926 36108 ft 423 kts 212°
2026-04-27 11:59 42.17071 -6.25900 36110 ft 423 kts 212°
2026-04-27 11:59 42.11973 -6.29867 36112 ft 423 kts 212°
2026-04-27 12:00 42.06874 -6.33833 36110 ft 423 kts 212°
2026-04-27 12:00 42.01808 -6.37758 36101 ft 423 kts 212°
2026-04-27 12:01 41.96706 -6.41704 36100 ft 423 kts 212°
2026-04-27 12:01 41.91602 -6.45648 36093 ft 423 kts 212°
2026-04-27 12:02 41.86496 -6.49585 36092 ft 423 kts 212°
2026-04-27 12:02 41.81398 -6.53509 36086 ft 423 kts 212°
2026-04-27 12:03 41.76316 -6.57409 36077 ft 423 kts 212°
2026-04-27 12:03 41.71213 -6.61322 36075 ft 423 kts 211°
2026-04-27 12:04 41.65856 -6.64626 36069 ft 425 kts 205°
2026-04-27 12:04 41.60411 -6.67680 36066 ft 425 kts 205°
2026-04-27 12:05 41.55005 -6.70718 36053 ft 425 kts 205°
2026-04-27 12:05 41.49555 -6.73788 36057 ft 425 kts 205°
2026-04-27 12:06 41.44102 -6.76854 36050 ft 425 kts 205°
2026-04-27 12:06 41.38643 -6.79918 36050 ft 425 kts 205°
2026-04-27 12:07 41.33225 -6.82951 36045 ft 426 kts 205°
2026-04-27 12:07 41.27759 -6.86011 36047 ft 426 kts 205°
2026-04-27 12:08 41.22284 -6.89066 36042 ft 427 kts 205°
2026-04-27 12:08 41.16814 -6.92113 36044 ft 426 kts 205°
2026-04-27 12:09 41.11377 -6.95135 36032 ft 427 kts 205°
2026-04-27 12:09 41.05900 -6.98173 36034 ft 427 kts 205°
2026-04-27 12:10 41.00424 -7.01207 36039 ft 427 kts 205°
2026-04-27 12:10 40.94943 -7.04239 36036 ft 427 kts 205°
2026-04-27 12:11 40.89502 -7.07246 36030 ft 427 kts 204°
2026-04-27 12:11 40.84020 -7.10271 36037 ft 427 kts 204°
2026-04-27 12:12 40.78534 -7.13286 36034 ft 427 kts 204°
2026-04-27 12:12 40.73974 -7.15788 36037 ft 427 kts 204°
2026-04-27 12:13 40.67605 -7.19281 36029 ft 427 kts 204°
2026-04-27 12:13 40.62114 -7.22287 36034 ft 427 kts 204°
2026-04-27 12:14 40.56620 -7.25289 36032 ft 427 kts 204°
2026-04-27 12:14 40.52057 -7.27777 36032 ft 427 kts 204°
2026-04-27 12:15 40.46566 -7.30766 36041 ft 427 kts 204°
2026-04-27 12:15 40.40178 -7.34234 36037 ft 427 kts 204°
2026-04-27 12:16 40.35575 -7.36732 36037 ft 427 kts 204°
2026-04-27 12:16 40.30119 -7.39686 36036 ft 427 kts 204°
2026-04-27 12:17 40.24624 -7.42658 36037 ft 427 kts 204°
2026-04-27 12:17 40.19141 -7.45615 36034 ft 427 kts 204°
2026-04-27 12:18 40.13631 -7.48586 36031 ft 427 kts 204°
2026-04-27 12:18 40.08172 -7.51522 36029 ft 427 kts 204°
2026-04-27 12:19 40.02667 -7.54474 36027 ft 427 kts 204°
2026-04-27 12:19 39.97167 -7.57421 36027 ft 428 kts 204°
2026-04-27 12:20 39.91668 -7.60362 36027 ft 428 kts 203°
2026-04-27 12:20 39.86192 -7.63286 36019 ft 428 kts 203°
2026-04-27 12:21 39.80558 -7.65744 36019 ft 430 kts 192°
2026-04-27 12:21 39.74635 -7.66841 36010 ft 430 kts 189°
2026-04-27 12:22 39.68698 -7.67866 36013 ft 430 kts 189°
2026-04-27 12:22 39.62811 -7.68925 36014 ft 430 kts 189°
2026-04-27 12:23 39.56878 -7.69993 36005 ft 430 kts 189°
2026-04-27 12:23 39.50948 -7.71055 36011 ft 430 kts 189°
2026-04-27 12:24 39.45016 -7.72112 35996 ft 430 kts 189°
2026-04-27 12:24 39.39079 -7.73168 35998 ft 431 kts 189°
2026-04-27 12:25 39.33183 -7.74217 36004 ft 431 kts 189°
2026-04-27 12:25 39.27268 -7.75269 35990 ft 430 kts 189°
2026-04-27 12:26 39.21318 -7.76325 35992 ft 430 kts 189°
2026-04-27 12:26 39.15440 -7.77366 35984 ft 430 kts 189°
2026-04-27 12:27 39.09501 -7.78427 36000 ft 430 kts 189°
2026-04-27 12:27 39.03581 -7.79483 35990 ft 429 kts 189°
2026-04-27 12:28 38.97672 -7.80528 36004 ft 429 kts 188°
2026-04-27 12:28 38.91758 -7.81565 35995 ft 429 kts 188°
2026-04-27 12:29 38.85884 -7.82597 35982 ft 429 kts 189°
2026-04-27 12:29 38.79966 -7.83640 35980 ft 430 kts 188°
2026-04-27 12:30 38.74048 -7.84671 35984 ft 429 kts 188°
2026-04-27 12:30 38.68139 -7.85692 35994 ft 429 kts 188°
2026-04-27 12:31 38.62237 -7.86722 35986 ft 430 kts 188°
2026-04-27 12:31 38.56315 -7.87753 35985 ft 430 kts 188°
2026-04-27 12:32 38.50393 -7.88784 35988 ft 429 kts 188°
2026-04-27 12:32 38.44474 -7.89813 35991 ft 429 kts 188°
2026-04-27 12:33 38.38614 -7.90831 35990 ft 429 kts 188°
2026-04-27 12:33 38.32676 -7.91858 35985 ft 429 kts 188°
2026-04-27 12:34 38.26762 -7.92881 35980 ft 429 kts 188°
2026-04-27 12:34 38.20850 -7.93904 35993 ft 429 kts 188°
2026-04-27 12:35 38.14974 -7.94918 35996 ft 429 kts 188°
2026-04-27 12:35 38.09060 -7.95935 35997 ft 429 kts 188°
2026-04-27 12:36 38.03147 -7.96951 35994 ft 429 kts 188°
2026-04-27 12:36 37.97233 -7.97964 35993 ft 429 kts 188°
2026-04-27 12:37 37.91359 -7.98969 35980 ft 429 kts 188°
2026-04-27 12:37 37.85449 -7.99980 35982 ft 428 kts 188°
2026-04-27 12:38 37.79543 -8.00987 35992 ft 428 kts 188°
2026-04-27 12:38 37.73637 -8.01992 35985 ft 428 kts 188°
2026-04-27 12:39 37.67731 -8.02997 35979 ft 428 kts 188°
2026-04-27 12:39 37.61880 -8.03993 35991 ft 428 kts 188°
2026-04-27 12:40 37.55956 -8.04997 35993 ft 428 kts 188°
2026-04-27 12:40 37.50048 -8.05999 35992 ft 428 kts 188°
2026-04-27 12:41 37.44141 -8.06997 35987 ft 428 kts 188°
2026-04-27 12:41 37.38278 -8.07993 35991 ft 428 kts 188°
2026-04-27 12:42 37.32382 -8.08989 35997 ft 428 kts 188°
2026-04-27 12:42 37.26498 -8.09980 35995 ft 427 kts 188°
2026-04-27 12:43 37.20588 -8.10977 35992 ft 427 kts 188°
2026-04-27 12:43 37.14733 -8.11958 35994 ft 427 kts 188°
2026-04-27 12:44 37.08839 -8.12944 35993 ft 427 kts 188°
2026-04-27 12:44 37.02946 -8.13931 35993 ft 427 kts 188°
2026-04-27 12:45 36.97055 -8.14914 35994 ft 427 kts 188°
2026-04-27 12:45 36.91161 -8.15897 35995 ft 428 kts 188°
2026-04-27 12:46 36.85304 -8.16871 35991 ft 428 kts 188°
2026-04-27 12:46 36.79411 -8.17851 35991 ft 428 kts 188°
2026-04-27 12:47 36.73502 -8.18830 35988 ft 428 kts 188°
2026-04-27 12:47 36.67601 -8.19804 35990 ft 428 kts 188°
2026-04-27 12:48 36.61740 -8.20771 35984 ft 428 kts 188°
2026-04-27 12:48 36.55837 -8.21747 35981 ft 428 kts 188°
2026-04-27 12:49 36.49933 -8.22722 35978 ft 428 kts 188°
2026-04-27 12:49 36.44029 -8.23693 35970 ft 427 kts 189°
2026-04-27 12:50 36.38223 -8.24646 35972 ft 424 kts 189°
2026-04-27 12:50 36.32346 -8.25609 35969 ft 425 kts 189°
2026-04-27 12:51 36.26494 -8.26566 35962 ft 424 kts 189°
2026-04-27 12:51 36.20626 -8.27527 35960 ft 425 kts 189°
2026-04-27 12:52 36.14835 -8.28478 35956 ft 423 kts 189°
2026-04-27 12:52 36.08973 -8.29438 35956 ft 423 kts 189°
2026-04-27 12:53 36.00215 -8.30863 35949 ft 424 kts 188°
2026-04-27 12:53 35.94489 -8.32104 35939 ft 423 kts 195°
2026-04-27 12:54 35.88759 -8.33939 35942 ft 424 kts 195°
2026-04-27 12:54 35.83038 -8.35771 35945 ft 425 kts 195°
2026-04-27 12:55 35.77321 -8.37582 35941 ft 424 kts 195°
2026-04-27 12:55 35.71644 -8.39376 35937 ft 424 kts 195°
2026-04-27 12:56 35.65934 -8.41179 35933 ft 424 kts 195°
2026-04-27 12:56 35.60215 -8.42984 35934 ft 424 kts 195°
2026-04-27 12:57 35.54499 -8.44785 35924 ft 425 kts 195°
2026-04-27 12:57 35.48781 -8.46581 35924 ft 424 kts 195°
2026-04-27 12:58 35.43123 -8.48359 35916 ft 425 kts 195°
2026-04-27 12:58 35.37363 -8.50165 35917 ft 426 kts 195°
2026-04-27 12:59 35.31624 -8.51961 35914 ft 426 kts 195°
2026-04-27 12:59 35.25924 -8.53741 35914 ft 426 kts 195°
2026-04-27 13:00 35.20188 -8.55532 35911 ft 425 kts 195°
2026-04-27 13:00 35.14456 -8.57320 35905 ft 425 kts 195°
2026-04-27 13:01 35.08731 -8.59103 35908 ft 425 kts 195°
2026-04-27 13:01 35.03002 -8.60885 35903 ft 425 kts 195°
2026-04-27 13:02 34.97310 -8.62651 35903 ft 425 kts 195°
2026-04-27 13:02 34.91580 -8.64428 35896 ft 424 kts 194°
2026-04-27 13:03 34.85859 -8.66200 35898 ft 424 kts 194°
2026-04-27 13:03 34.80152 -8.67964 35894 ft 424 kts 194°
2026-04-27 13:04 34.74456 -8.69717 35895 ft 424 kts 194°
2026-04-27 13:04 34.68736 -8.71475 35888 ft 424 kts 194°
2026-04-27 13:05 34.63012 -8.73238 35890 ft 425 kts 194°
2026-04-27 13:05 34.57304 -8.74992 35886 ft 425 kts 194°
2026-04-27 13:06 34.51594 -8.76742 35888 ft 425 kts 194°
2026-04-27 13:06 34.45849 -8.78503 35888 ft 425 kts 194°
2026-04-27 13:07 34.40115 -8.80256 35886 ft 425 kts 194°
2026-04-27 13:07 34.34375 -8.81998 35888 ft 425 kts 194°
2026-04-27 13:08 34.28675 -8.83728 35888 ft 425 kts 194°
2026-04-27 13:08 34.22934 -8.85466 35887 ft 425 kts 194°
2026-04-27 13:09 34.17194 -8.87205 35884 ft 425 kts 194°
2026-04-27 13:09 34.11448 -8.88943 35885 ft 426 kts 194°
2026-04-27 13:10 34.05739 -8.90666 35884 ft 426 kts 194°
2026-04-27 13:10 33.99992 -8.92399 35883 ft 426 kts 194°
2026-04-27 13:11 33.94245 -8.94130 35887 ft 426 kts 194°
2026-04-27 13:11 33.88534 -8.95848 35887 ft 426 kts 194°
2026-04-27 13:12 33.82801 -8.97568 35884 ft 426 kts 194°
2026-04-27 13:12 33.77022 -8.99301 35885 ft 426 kts 194°
2026-04-27 13:13 33.71266 -9.01032 35885 ft 426 kts 194°
2026-04-27 13:13 33.65507 -9.02758 35884 ft 426 kts 194°
2026-04-27 13:14 33.59801 -9.04461 35887 ft 427 kts 194°
2026-04-27 13:14 33.54022 -9.06180 35887 ft 427 kts 194°
2026-04-27 13:15 33.48256 -9.07899 35886 ft 427 kts 194°
2026-04-27 13:15 33.42489 -9.09612 35899 ft 428 kts 194°
2026-04-27 13:16 33.36739 -9.11321 35893 ft 429 kts 194°
2026-04-27 13:16 33.30941 -9.13045 35892 ft 429 kts 194°
2026-04-27 13:17 33.25141 -9.14763 35895 ft 429 kts 194°
2026-04-27 13:17 33.19341 -9.16480 35890 ft 429 kts 194°
2026-04-27 13:18 33.13578 -9.18184 35892 ft 430 kts 194°
2026-04-27 13:18 33.07778 -9.19904 35891 ft 429 kts 194°
2026-04-27 13:19 33.01979 -9.21621 35898 ft 429 kts 194°
2026-04-27 13:19 32.96180 -9.23342 35899 ft 429 kts 194°
2026-04-27 13:20 32.90382 -9.25063 35902 ft 430 kts 194°
2026-04-27 13:20 32.84639 -9.26759 35894 ft 430 kts 194°
2026-04-27 13:21 32.78815 -9.28476 35905 ft 430 kts 194°
2026-04-27 13:21 32.73011 -9.30178 35905 ft 430 kts 194°
2026-04-27 13:22 32.67233 -9.31878 35901 ft 430 kts 194°
2026-04-27 13:22 32.61440 -9.33579 35895 ft 430 kts 194°
2026-04-27 13:23 32.55639 -9.35285 35902 ft 430 kts 194°
2026-04-27 13:23 32.49828 -9.36987 35900 ft 430 kts 193°
2026-04-27 13:24 32.44010 -9.38687 35906 ft 431 kts 193°
2026-04-27 13:24 32.38230 -9.40376 35904 ft 431 kts 193°
2026-04-27 13:25 32.32408 -9.42074 35911 ft 431 kts 193°
2026-04-27 13:25 32.26586 -9.43771 35914 ft 431 kts 193°
2026-04-27 13:26 32.20802 -9.45454 35916 ft 431 kts 193°
2026-04-27 13:26 32.14967 -9.47151 35928 ft 434 kts 193°
2026-04-27 13:27 32.09115 -9.48848 35917 ft 432 kts 194°
2026-04-27 13:27 32.03325 -9.50528 35922 ft 428 kts 193°
2026-04-27 13:28 31.97478 -9.52223 35923 ft 435 kts 193°
2026-04-27 13:28 31.91650 -9.53906 35697 ft 431 kts 193°
2026-04-27 13:29 31.88731 -9.54748 35378 ft 433 kts 193°
2026-04-27 13:29 31.85800 -9.55594 35117 ft 434 kts 193°
2026-04-27 13:29 31.82863 -9.56441 34870 ft 435 kts 193°
2026-04-27 13:29 31.79923 -9.57288 34632 ft 435 kts 193°
2026-04-27 13:30 31.77007 -9.58128 34398 ft 436 kts 193°